星链-6138 (STARLINK-6138 )

导读 | 星芒AI

STARLINK-6138 是 SpaceX Starlink 卫星互联网项目中的一颗低轨卫星,属于第61批发射的星链卫星之一。该卫星运行在约550公里高度的近地轨道,旨在为全球用户提供高速、低延迟的互联网服务。作为星链星座的一部分,STARLINK-6138 与其他数千颗卫星协同工作,支持偏远地区的网络接入,提升全球通信能力。其部署有助于 SpaceX 扩大星链网络的覆盖范围和稳定性。

基本信息
目录编号:
57329
目录名称:
STARLINK-6138
国际标识:
2023-099B
轨道中心:
EARTH
卫星名称:
星链-6138
卫星全名:
星链-6138 (STARLINK-6138 )
卫星状态:
在轨 (已飞行889 天)
发射日期:
2023-07-16 UTC
国别 :
美国 (US)
星等 :
--
轨道信息
数据来源 国际轨道数据
星历时间: 2025-12-21T13:48:44+0800
11小时前
查看轨道信息
半长轴: 6937.246km
偏心率: 0.0001275
轨道倾角: 43.004°
近地点辐角 267.246°
升交点赤经 315.438°
平近点角 92.824°
近地点: 558.224km
远地点: 559.994km
周期: 95.839分钟
每日圈数: 15.025266
详细信息
固有亮度:
5
最大亮度:
2.5
卫星平台:
Starlink v1.5
覆盖范围:
全球
运营商:
太空探索技术公司
运营商所在国:
美国
制造商(研发单位):
太空探索技术公司
制造商所在国:
美国
使用方式:
暂无
卫星简介
星链(Starlink)计划是由太空探索技术公司(SpaceX)提出的一个巨型低轨卫星互联网星座项目,计划在2019年至2024年间在太空搭建由约1.2万颗卫星组成的“星链”网络,其中1584颗将部署在地球上空550千米处的近地轨道,并从2020年开始工作。该卫星仍在工作。
2D轨道图
3D轨道图
轨道高度分析图
轨道倾角分析图
轨道综合分析图
查看轨道综合分析图